Tracking 18856 objects as of 11-Dec-2017
HD Live streaming from Space Station
objects crossing your sky now

ARIANE 44L R/B

Track ARIANE 44L R/B now!


NORAD ID: 26696
Int'l Code: 2001-005C
Perigee: 319.6 km
Apogee: 32,084.2 km
Inclination: 6.9 °
Period: 562.5 minutes
Semi major axis: 22572 km
RCS: 23.3181 m2 (large)
Launch date: February 7, 2001
Source: France (FR)
Launch site: FRENCH GUIANA (FRGUI)

Note: This is a ROCKET BODY
aabbcc
Your satellite tracking list
Your tracking list is empty




NASA's NSSDC Master Catalog

Two Line Element Set (TLE):
1 26696U 01005C   17343.94070154 +.00000172 +00000-0 +44117-3 0  9993
2 26696 006.9485 131.0510 7036020 072.5386 348.5651 02.55989854147653
Source of the keplerian elements: AFSPC